Terminal Aerodrome Forecast
Issued by NWS Twin Cities, MN

Home | Current Version | Previous Version | Graphics & Text | Print | Product List | Glossary On
Versions: 1 2 3 4 5 6 7 8 9 10 11 12 13 14 15 16 17 18 19 20 21 22 23 24 25
000
FTUS43 KMPX 200707 RRA
TAFMSP
TAF
KMSP 200707Z 2007/2112 20005KT P6SM FEW250
     FM201500 16008KT P6SM BKN180
     FM201900 20010KT P6SM BKN150
     FM210400 25010KT P6SM SCT200
     FM210900 30021G32KT P6SM SCT040=

USA.gov is the U.S. government's official web portal to all federal, state and local government web resources and services.